Weather History for KFTY - March, 2013

Change the Weather History Date:

Wednesday, March 6, 2013

  Actual Average Record
Temperature  
Mean Temperature 38 °F 51 °F  
Max Temperature 44 °F 62 °F 73 °F (2004)
Min Temperature 32 °F 39 °F 26 °F (2002)
Degree Days  
Heating Degree Days 27 14  
Month to date heating degree days 90  
Since 1 July heating degree days 2430  
Cooling Degree Days 0 0  
Month to date cooling degree days 0  
Year to date cooling degree days 0  
Moisture  
Dew Point 24 °F    
Average Humidity 59    
Maximum Humidity 82    
Minimum Humidity 47    
Precipitation  
Precipitation 0.00 in 0.17 in 2.11 in (1959)
Month to date precipitation 1.02  
Year to date precipitation 10.19  
Sea Level Pressure  
Sea Level Pressure 30.08 in    
Wind  
Wind Speed 15 mph (NW)    
Max Wind Speed 24 mph    
Max Gust Speed 43 mph    
Visibility 10 miles    
Events Snow    
T = Trace of Precipitation, MM = Missing Value Source: NWS Daily Summary

Daily Weather History Graph

Daily Weather History Graph

Search for Another Location

Airport or City:

Trip Planner

Search our weather history database for the weather conditions in past years. The results will help you decide how hot, cold, wet, or windy it might be!

Date:

Astronomy

Mar. 06, 2013 Rise Set
Actual Time 7:00 AM EST 6:38 PM EST
Civil Twilight 6:35 AM EST 7:03 PM EST
Nautical Twilight 6:06 AM EST 7:32 PM EST
Astronomical Twilight 5:37 AM EST 8:01 PM EST
Moon 2:56 AM EST (3/6) 1:31 PM EST (3/6)
Length of Visible Light 12h 28m
Length of Day
11h 38m
Waning Crescent, 30% of the Moon is Illuminated
Mar 6
Waning Crescent
Mar 11
New
Mar 19
First Quarter
Mar 27
Full
Apr 3
Last Quarter

Hourly Weather History & Observations

Time (EST) Temp. Windchill Dew Point Humidity Pressure Visibility Wind Dir Wind Speed Gust Speed Precip Events Conditions
12:53 AM 39.0 °F 29.9 °F 27.0 °F 62% 29.94 in 10.0 mi WNW 17.3 mph 21.9 mph N/A   Clear
1:53 AM 39.0 °F 30.3 °F 27.0 °F 62% 29.92 in 10.0 mi West 16.1 mph 20.7 mph N/A   Mostly Cloudy
2:46 AM 35.6 °F 23.7 °F 28.4 °F 75% 29.95 in 1.8 mi NW 24.2 mph 42.6 mph 0.00 in Snow Light Snow
2:53 AM 34.0 °F 23.4 °F 28.9 °F 82% 29.95 in 10.0 mi WNW 17.3 mph 42.6 mph 0.00 in Snow Light Snow
3:53 AM 34.0 °F 23.8 °F 23.0 °F 64% 29.96 in 10.0 mi WNW 16.1 mph 29.9 mph 0.00 in   Clear
4:53 AM 33.1 °F 24.4 °F 19.9 °F 59% 29.98 in 10.0 mi WNW 11.5 mph 28.8 mph N/A   Clear
5:53 AM 32.0 °F 21.6 °F 18.0 °F 56% 30.00 in 10.0 mi WNW 15.0 mph 25.3 mph N/A   Clear
6:53 AM 33.1 °F 23.9 °F 18.0 °F 54% 30.02 in 10.0 mi WNW 12.7 mph 21.9 mph N/A   Overcast
7:53 AM 34.0 °F 26.0 °F 19.9 °F 56% 30.04 in 10.0 mi WNW 10.4 mph 19.6 mph N/A   Overcast
8:53 AM 36.0 °F 25.6 °F 21.9 °F 57% 30.06 in 10.0 mi WNW 18.4 mph 29.9 mph N/A   Overcast
9:53 AM 37.9 °F 30.0 °F 23.0 °F 55% 30.08 in 10.0 mi NW 12.7 mph 25.3 mph N/A   Mostly Cloudy
10:53 AM 37.0 °F 26.7 °F 23.0 °F 57% 30.09 in 10.0 mi WNW 19.6 mph 28.8 mph N/A   Overcast
11:53 AM 39.9 °F 32.9 °F 24.1 °F 53% 30.11 in 10.0 mi NW 11.5 mph 25.3 mph N/A   Overcast
12:53 PM 39.9 °F 32.5 °F 24.1 °F 53% 30.13 in 10.0 mi NW 12.7 mph 20.7 mph N/A   Overcast
1:53 PM 41.0 °F 33.1 °F 24.1 °F 51% 30.12 in 10.0 mi NW 15.0 mph 24.2 mph N/A   Overcast
2:53 PM 42.1 °F 34.5 °F 25.0 °F 51% 30.13 in 10.0 mi WNW 15.0 mph 24.2 mph N/A   Overcast
3:53 PM 43.0 °F 36.4 °F 26.1 °F 51% 30.13 in 10.0 mi NW 12.7 mph 23.0 mph N/A   Overcast
4:53 PM 44.1 °F 37.7 °F 26.1 °F 49% 30.13 in 10.0 mi NNW 12.7 mph 24.2 mph N/A   Clear
5:53 PM 44.1 °F 39.5 °F 25.0 °F 47% 30.15 in 10.0 mi NNW 8.1 mph 16.1 mph N/A   Clear
6:53 PM 41.0 °F 35.2 °F 25.0 °F 53% 30.18 in 10.0 mi NNW 9.2 mph - N/A   Clear
7:53 PM 39.0 °F 32.3 °F 25.0 °F 57% 30.18 in 10.0 mi NW 10.4 mph - N/A   Clear
8:53 PM 37.9 °F 32.7 °F 25.0 °F 60% 30.19 in 10.0 mi North 6.9 mph - N/A   Mostly Cloudy
9:53 PM 37.0 °F 29.8 °F 26.1 °F 65% 30.20 in 10.0 mi NNW 10.4 mph 17.3 mph N/A   Mostly Cloudy
10:53 PM 36.0 °F 29.6 °F 26.1 °F 67% 30.20 in 10.0 mi NNW 8.1 mph - N/A   Scattered Clouds
11:53 PM 35.1 °F 29.3 °F 26.1 °F 70% 30.19 in 10.0 mi NNW 6.9 mph - N/A   Clear